{"data":{"norad_id":55475,"intl_designator":"2023-015AC","name":"STARLINK-5650","alt_names":[],"object_type":"PAYLOAD","status":"ACTIVE","operator":null,"country":"US","launch_date":"2023-02-02","launch_site_code":"AFETR","launch_vehicle":null,"mission":null,"orbit_class":"UNKNOWN","rcs_meters":null,"size_class":null,"mass_kg":null,"dimensions":null,"purposes":["comms"],"wikipedia_slug":null,"has_3d_model":false,"image_url":null,"decayed_at":null,"tle_current":{"epoch":"2026-05-25T00:28:00.266592Z","epoch_age_seconds":69875,"freshness":"FRESH","line1":"1 55475U 23015AC  26145.01944753 -.00000691  00000+0 -15596-4 0  9995","line2":"2 55475  43.0038 257.8187 0001588 275.6240  84.4430 15.27575720182399","mean_motion":15.2757572,"eccentricity":0.0001588,"inclination_deg":43.0038,"raan_deg":257.8187,"arg_perigee_deg":275.624,"mean_anomaly_deg":84.443,"bstar":-1.5596e-5,"rev_number":18239,"period_min":94.267012832595,"perigee_km":481.97235354208,"apogee_km":484.15147031651,"semimajor_km":6861.1989119293,"source":"CELESTRAK","updated_at":"2026-05-25T13:38:17.808019Z"}}}